Flag for U.S.A. Weather past 2 weeks in Cleveland, Tennessee, U.S.A.

Now
50 °F

Drizzle. Fog.


Feels Like: 50 °F
Forecast: 45 / 64 °F
Wind: No wind

Location: Lovell Field

Current Time: Mar 30, 2015 at 7:36:10 AM

Latest Report: Mar 30, 2015 at 6:55 AM


Visibility: 3 mi

Pressure: 30.09 "Hg

Humidity: 93%

Dew point: 48 °F

Location of ClevelandLocation

Historic Weather in Cleveland — Graph

°F

Cleveland temperature yesterday

Maximum temperature yesterday: 61 °F (at 4:53 PM)
Minimum temperature yesterday: 29 °F (at 6:53 AM)
Average temperature yesterday: 47 °F

Past Weeks' High & Low Weather Summary

 TemperatureHumidityPressure
High81 °F (Mar 17, 3:53 PM)97% (Mar 19, 5:53 PM)30.42 "Hg (Mar 19, 5:53 PM)
Low29 °F (Mar 29, 6:53 AM)16% (Mar 16, 6:53 PM)29.72 "Hg (Mar 26, 5:53 PM)
Average56 °F62%30.09 "Hg
* Reported Mar 15 5:53 AM — Mar 30 5:53 AM, Cleveland, Weather by CustomWeather, © 2015

Note: Actual official high and low records may vary slightly from our data, if they occured in-between our weather recording intervals... More about our weather records

Advertising

Cleveland weather history for previous 24 hours

 ConditionsComfort  
Time TempWeatherWind HumidityBarometerVisibility
5:53 AM
Mon, Mar 30
49 °FMostly cloudy.No wind97%30.04 "Hg7 mi
4:57 AM48 °FHeavy rain. Fog.8 mph89%30.09 "Hg3 mi
4:04 AM50 °FStrong thunderstorms. Overcast.5 mph74%30.11 "Hg2 mi
2:53 AM55 °FOvercast.9 mph44%30.07 "Hg10 mi
1:53 AM55 °FOvercast.3 mph42%30.12 "Hg10 mi
12:53 AM54 °FPassing clouds.6 mph43%30.16 "Hg10 mi
11:53 PM
Sun, Mar 29
56 °FPassing clouds.9 mph39%30.16 "Hg10 mi
10:53 PM58 °FPassing clouds.8 mph35%30.16 "Hg10 mi
9:53 PM59 °FOvercast.10 mph32%30.17 "Hg10 mi
8:53 PM59 °FOvercast.9 mph31%30.18 "Hg10 mi
7:53 PM60 °FPartly sunny.8 mph28%30.17 "Hg10 mi
6:53 PM61 °FPartly sunny.8 mph25%30.18 "Hg10 mi
5:53 PM61 °FOvercast.8 mph23%30.19 "Hg10 mi
4:53 PM61 °FScattered clouds.13 mph19%30.22 "Hg10 mi
3:53 PM60 °FScattered clouds.10 mph16%30.26 "Hg10 mi
2:53 PM58 °FSunny.12 mph17%30.29 "Hg10 mi
1:53 PM54 °FSunny.5 mph19%30.32 "Hg10 mi
12:53 PM52 °FSunny.3 mph21%30.35 "Hg10 mi
11:53 AM48 °FSunny.3 mph29%30.39 "Hg10 mi
10:53 AM42 °FSunny.No wind38%30.42 "Hg10 mi
9:53 AM39 °FSunny.No wind50%30.42 "Hg10 mi
8:53 AM32 °FSunny.No wind69%30.40 "Hg10 mi
7:53 AM30 °FClear.No wind72%30.39 "Hg10 mi
Weather by CustomWeather, © 2015

See weather overviewHow to use our weather pages